Starlink 32723

operational
NORAD ID: 62449 Int'l Des: 2024-251 Owner: SPXS Country: US Constellation: starlink
LEOCIRCULAR

Starlink 32723について

説明を読み込み中...

リアルタイム位置

3D地球を読み込み中...

次回通過

高度履歴

Altitude vs Time

uPlot chart will show altitude changes over time

軌道要素

1 62449U 24251T 25351.28797454 .00022714 00000-0 77660-3 0 9996
2 62449 53.1619 357.9575 0001577 75.5854 284.5322 15.30202598 55176
Epoch: Dec 17, 2025 • Age: 7 hours

現在のステータス

高度 494.1 km
速度 7.62 km/s
衛星直下点 -51.47°S, 55.13°W
打ち上げ日 Dec 29, 2024
運用期間 0.9 years
タイプ internet

技術仕様

分類 Payload
質量 730.00 kg
乾燥質量 700.00 kg
総質量 730.00 kg
長さ 0.30 m
直径 4.10 m
スパン 29.00 m
形状 Box + pan
製造者 SPXS
バスタイプ Starlink V2M
フェーズステータス In Orbit
所有者/国 SPXS/US

大規模コンステレーション

Loading constellations...